Change the Weather History Date:

Wednesday, August 7, 2013

  Actual Average Record
Temperature  
Mean Temperature 73 °F 70 °F  
Max Temperature 93 °F 91 °F 105 °F (1981)
Min Temperature 52 °F 50 °F 30 °F (1917)
Degree Days  
Heating Degree Days 0 0  
Month to date heating degree days 0 0  
Since 1 June heating degree days 63 150  
Since 1 July heating degree days 0 19  
Cooling Degree Days 8 6  
Month to date cooling degree days 39 42  
Year to date cooling degree days 539 273  
Since 1 June cooling degree days 535 269  
Growing Degree Days 23 (Base 50)    
Moisture  
Dew Point 29 °F    
Average Humidity 27    
Maximum Humidity 45    
Minimum Humidity 9    
Precipitation  
Precipitation 0.00 in 0.01 in 0.75 in (1971)
Month to date precipitation 0.00 0.09  
Year to date precipitation 3.31 6.00  
Snow  
Snow 0.00 in 0.00 in 0.00 in (1888)
Month to date snowfall 0.0 0.0  
Since 1 June snowfall 0.0 0.0  
Since 1 July snowfall 0.0 0.0  
Snow Depth 0.00 in    
Sea Level Pressure  
Sea Level Pressure 29.86 in    
Wind  
Wind Speed 6 mph (West)    
Max Wind Speed 33 mph    
Max Gust Speed 49 mph    
Visibility 10 miles    
Events Thunderstorm    
T = Trace of Precipitation, MM = Missing Value Source: NWS Daily Summary

Daily Weather History Graph

Daily Weather History Graph

Search for Another Location

Airport or City:

Trip Planner

Search our weather history database for the weather conditions in past years. The results will help you decide how hot, cold, wet, or windy it might be!

Date:

Astronomy

Aug. 07, 2013 Rise Set
Actual Time 5:45 AM PDT 7:51 PM PDT
Civil Twilight 5:15 AM PDT 8:21 PM PDT
Nautical Twilight 4:38 AM PDT 8:58 PM PDT
Astronomical Twilight 3:58 AM PDT 9:38 PM PDT
Moon 6:39 AM PDT (8/7) 7:59 PM PDT (8/7)
Length of Visible Light 15h 05m
Length of Day
14h 05m
New Moon, 1% of the Moon is Illuminated
Aug 7
New Moon
Aug 14
First Quarter
Aug 20
Full
Aug 28
Last Quarter
Sep 5
New

Hourly Weather History & Observations

Time (PDT) Temp. Dew Point Humidity Pressure Visibility Wind Dir Wind Speed Gust Speed Precip Events Conditions
12:56 AM 69.1 °F 30.0 °F 23% 29.85 in 10.0 mi East 4.6 mph - N/A   Clear
1:56 AM 57.0 °F 30.0 °F 36% 29.87 in 10.0 mi Calm Calm - N/A   Clear
2:56 AM 59.0 °F 30.0 °F 33% 29.87 in 10.0 mi Calm Calm - N/A   Clear
3:56 AM 57.0 °F 30.9 °F 37% 29.88 in 10.0 mi South 4.6 mph - N/A   Clear
4:56 AM 53.1 °F 32.0 °F 45% 29.89 in 10.0 mi SW 4.6 mph - N/A   Clear
5:56 AM 55.0 °F 30.0 °F 38% 29.90 in 10.0 mi Calm Calm - N/A   Clear
6:56 AM 63.0 °F 32.0 °F 31% 29.90 in 10.0 mi Calm Calm - N/A   Clear
7:56 AM 71.1 °F 34.0 °F 26% 29.90 in 10.0 mi NE 6.9 mph - N/A   Clear
8:56 AM 75.9 °F 33.1 °F 21% 29.89 in 10.0 mi NE 6.9 mph - N/A   Clear
9:56 AM 82.0 °F 28.0 °F 14% 29.87 in 10.0 mi North 4.6 mph - N/A   Clear
10:56 AM 86.0 °F 25.0 °F 11% 29.87 in 10.0 mi WNW 5.8 mph - N/A   Clear
11:56 AM 88.0 °F 23.0 °F 9% 29.84 in 10.0 mi Calm Calm - N/A   Clear
12:56 PM 90.0 °F 24.1 °F 9% 29.81 in 10.0 mi North 5.8 mph - N/A   Clear
1:56 PM 93.0 °F 26.1 °F 9% 29.81 in 10.0 mi SW 11.5 mph 18.4 mph N/A   Clear
2:56 PM 89.1 °F 25.0 °F 10% 29.79 in 10.0 mi WSW 4.6 mph - N/A   Partly Cloudy
3:36 PM 89.6 °F 26.6 °F 10% 29.97 in 10.0 mi WSW 12.7 mph 20.7 mph N/A Thunderstorm Clear
3:51 PM 87.8 °F 26.6 °F 11% 29.97 in 10.0 mi West 17.3 mph 36.8 mph N/A   Clear
3:56 PM 88.0 °F 26.1 °F 11% 29.79 in 10.0 mi WSW 10.4 mph 36.8 mph N/A   Clear
4:12 PM 86.0 °F 28.4 °F 12% 29.97 in 4.0 mi West 23.0 mph 49.5 mph N/A   Haze
4:56 PM 89.1 °F 27.0 °F 11% 29.78 in 10.0 mi NNW 5.8 mph - N/A   Clear
5:15 PM 89.6 °F 26.6 °F 10% 29.94 in 10.0 mi Calm Calm - N/A Thunderstorm Clear
5:54 PM 86.0 °F 28.4 °F 12% 29.96 in 10.0 mi WSW 16.1 mph 24.2 mph N/A   Scattered Clouds
5:56 PM 84.9 °F 30.0 °F 14% 29.80 in 10.0 mi SW 23.0 mph 34.5 mph N/A   Scattered Clouds
6:56 PM 87.1 °F 30.0 °F 13% 29.78 in 10.0 mi North 10.4 mph - N/A   Scattered Clouds
7:56 PM 84.0 °F 28.9 °F 14% 29.78 in 10.0 mi Calm Calm - N/A   Partly Cloudy
8:56 PM 78.1 °F 30.9 °F 18% 29.80 in 10.0 mi Calm Calm - N/A   Clear
9:56 PM 82.0 °F 30.0 °F 15% 29.78 in 10.0 mi SE 21.9 mph 29.9 mph N/A   Scattered Clouds
10:56 PM 78.1 °F 30.9 °F 18% 29.78 in 10.0 mi NNW 8.1 mph - N/A   Clear
11:56 PM 73.0 °F 30.9 °F 21% 29.79 in 10.0 mi East 4.6 mph - N/A   Clear